sat.trackr.live / text

‹ back to catalog

COSMOS 2606

NORAD 67680 · 2026-023G

PAYLOAD ACTIVE UNKNOWN

§ Identity

Operator
Country
CIS
Launch date
2026-02-05
Launch site
PLMSC
Launch vehicle
Mass (kg)
RCS (m²)

External: N2YO · Heavens-Above · Gunter

§ Orbital elements

Epoch: 2026-09-19T09:17:16.001664Z

Period
94.31 min
Inclination
96.6038°
Eccentricity
0.0021830
Mean motion
15.26922206 rev/d
Perigee alt
470.0 km
Apogee alt
500.0 km
Semi-major
6,863.2 km
B*
1.1460e-4
RAAN
315.4255°
Arg perigee
141.3512°
Mean anomaly
218.9296°
Rev number
3,436

§ Raw data

COSMOS 26061 67680U 26023G   26262.38699076  .00002988  00000+0  11460-3 0  99972 67680  96.6038 315.4255 0021830 141.3512 218.9296 15.26922206 34365

JSON: /api/v1/satellites/67680 · /tle

For live sub-satellite position, see the globe view (requires WebGL).

§ Visibility from observer

Set your observer location to see the next 7 days of passes ≥ 10°. The values pass through the URL so the page stays shareable.

No JS? Fill the form by hand. The geolocation button needs JavaScript.